• Join FlightAware (Why Join?)
  • Login
  • US Flag 
10:09PM EST


 

Airport Tracker/Info


-or-


 

Live Flight TrackerFlight Track Log ✈ EJA929 ✈ 05-Sep-2013 ✈ KTEB - KBXM

Flight Track Log - Related Links

Times and Time Zones

All times are in EDT time to prevent confusion due to time zone crossing. See the EJA929 flight status page for this flight to view local times or setup timezone preferences in your user account.

Time Position Orientation Groundspeed Altitude Reporting Facility
EDT Latitude Longitude Course Direction KTS MPH feet Rate Location/Type
08:22AM 40.8167 -74.1333 270° West 198 228 1,500  Level New York TRACON
08:23AM 40.8167 -74.2000 270° West 195 224 3,500 1,324 Climbing New York TRACON
08:25AM 40.9053 -74.2625 332° Northwest 271 312 6,000 732 Climbing Boston Center
08:26AM 40.9775 -74.2256 21° North 277 319 6,000 50 Level Boston Center
08:27AM 41.0589 -74.1861 20° North 277 319 6,100 443 Climbing Boston Center
08:28AM 41.1133 -74.1108 46° Northeast 299 344 6,900 2,132 Climbing Boston Center
08:29AM 41.1494 -73.9950 67° East 315 362 10,400 2,361 Climbing Boston Center
08:30AM 41.1878 -73.8722 67° East 372 428 11,700 1,742 Climbing Boston Center
08:31AM 41.2303 -73.7397 67° East 393 452 14,000 1,850 Climbing Boston Center
08:32AM 41.2750 -73.6008 67° East 408 470 15,400 1,537 Climbing Boston Center
08:33AM 41.3586 -73.4767 48° Northeast 422 486 17,100 1,672 Climbing Boston Center
08:34AM 41.4417 -73.3647 45° Northeast 426 490 18,800 1,548 Climbing Boston Center
08:35AM 41.5256 -73.2528 45° Northeast 440 506 20,300 1,073 Climbing Boston Center
08:36AM 41.6092 -73.1497 43° Northeast 455 524 21,000 347 Climbing Boston Center
08:37AM 41.7306 -73.1186 11° North 449 517 21,000  Level Boston Center
08:38AM 41.8758 -73.1447 352° North 441 507 21,000  Level Boston Center
08:39AM 41.9997 -73.1686 352° North 448 516 21,000  Level Boston Center
08:40AM 42.1258 -73.1900 353° North 454 522 21,000  Level Boston Center
08:41AM 42.2514 -73.2131 352° North 452 520 21,000  Level Boston Center
08:42AM 42.3806 -73.2350 353° North 461 531 21,000  Level Boston Center
08:43AM 42.5100 -73.2467 356° North 460 529 21,000  Level Boston Center
08:44AM 42.6253 -73.1511 31° Northeast 488 562 21,000  Level Boston Center
08:45AM 42.6944 -72.9781 61° Northeast 496 571 21,000  Level Boston Center
08:47AM 42.7589 -72.8094 62° Northeast 503 579 21,000  Level Boston Center
08:48AM 42.8236 -72.6383 63° Northeast 508 585 21,000  Level Boston Center
08:49AM 42.8844 -72.4822 62° Northeast 510 587 21,000  Level Boston Center
08:50AM 42.9503 -72.3058 63° Northeast 518 596 21,000  Level Boston Center
08:51AM 43.0231 -72.1131 63° Northeast 527 606 21,000  Level Boston Center
08:52AM 43.0892 -71.9358 63° Northeast 526 605 21,000  Level Boston Center
08:53AM 43.1544 -71.7572 63° Northeast 525 604 21,000 -48 Level Boston Center
08:54AM 43.2197 -71.5789 63° Northeast 525 604 20,900 -1,016 Descending Boston Center
08:55AM 43.3019 -71.3797 60° Northeast 518 596 18,900 -2,083 Descending Boston Center
08:56AM 43.3708 -71.2147 60° Northeast 501 577 16,700 -2,146 Descending Boston Center
08:57AM 43.4375 -71.0528 60° Northeast 489 563 14,500 -2,244 Descending Boston Center
08:58AM 43.5081 -70.8844 60° Northeast 473 544 12,100 -2,213 Descending Boston Center
08:59AM 43.5592 -70.7386 64° Northeast 419 482 10,000 -1,377 Descending Boston Center
09:00AM 43.5800 -70.6097 77° East 342 394 9,300 -1,438 Descending Boston Center
09:01AM 43.5972 -70.5014 78° East 292 336 7,100 -1,131 Descending Boston Center
09:02AM 43.6142 -70.3933 78° East 270 311 7,000 -639 Descending Boston Center
09:03AM 43.6303 -70.2886 78° East 279 321 5,800 -1,366 Descending Boston Center
09:04AM 43.6453 -70.1903 78° East 266 306 4,200 -871 Descending Boston Center
09:05AM 43.6603 -70.0964 78° East 235 270 4,000 -393 Descending Boston Center
09:06AM 43.6731 -70.0106 78° East 230 265 3,400 -744 Descending Boston Center
09:07AM 43.6928 -69.9358 70° East 213 245 2,500 -700 Descending Boston Center
09:08AM 43.7425 -69.9200 13° North 187 215 2,000 -242 Descending Boston Center
09:09AM 43.7919 -69.9253 356° North 184 212 2,000  Level Boston Center